Theta_e
307 308 312 311 311 311 311 311 311 312 312 312 312 312 311 310 308 299 297 303 299 294 295 300 301 295 296 295 292 295 295 296 294 289 289 289 288 291 289 292 292 290 289 288 289 287 286 304 301 297 299 303 302 299
304 306 309 311 311 310 310 310 311 311 311 312 312 312 311 310 309 304 297 303 303 296 296 300 300 301 300 300 295 294 294 294 295 292 293 291 290 290 290 287 295 288 292 289 291 291 298 299 299 303 302 300 303 300
305 305 306 310 310 310 310 310 310 311 311 311 311 312 311 310 309 303 299 300 298 293 292 293 294 299 300 301 302 294 295 297 295 298 294 292 289 292 288 289 290 292 295 289 291 294 295 298 299 301 301 300 305 304
305 305 305 310 310 310 310 310 310 311 311 311 311 311 310 309 308 305 299 300 297 293 289 292 301 298 302 300 299 300 298 297 297 296 292 290 289 293 288 289 288 292 293 289 289 293 296 298 299 299 301 302 302 302
305 305 305 309 310 309 309 310 310 310 311 311 311 310 310 309 307 303 301 301 300 294 289 291 296 298 299 299 298 296 295 293 291 290 289 288 290 289 288 288 286 291 289 288 288 293 292 293 297 299 299 300 302 301
305 305 305 308 309 309 309 309 310 310 311 311 311 310 309 307 305 301 295 300 301 298 291 287 295 295 296 297 296 294 294 292 291 288 287 288 291 288 283 283 291 292 294 294 293 295 295 297 299 300 299 300 301 301
305 305 305 305 309 309 309 309 310 310 310 310 309 308 307 307 302 297 295 298 302 298 291 287 288 295 297 295 294 293 294 292 291 289 287 288 288 289 284 284 289 293 295 296 297 296 295 297 295 298 299 301 303 302
305 305 305 307 309 309 309 309 310 310 309 308 307 306 306 305 302 297 299 303 301 294 292 285 287 290 295 290 289 292 290 290 290 289 289 287 288 288 283 289 292 294 295 296 296 297 297 298 298 298 300 301 301 302
305 305 304 308 309 309 309 309 309 308 306 306 306 306 302 299 296 297 306 305 301 295 285 287 285 284 294 291 292 291 291 286 291 287 287 288 285 282 288 289 291 294 294 295 297 298 298 297 298 299 299 299 303 303
305 305 304 308 308 308 309 308 306 305 305 305 301 296 291 296 308 306 298 293 292 291 290 285 289 289 293 290 288 289 289 286 283 287 290 285 284 291 292 293 294 295 298 302 297 296 300 298 300 302 303 304 304 305
305 304 308 308 308 308 307 306 305 305 304 297 294 293 298 307 297 294 289 287 288 285 287 287 287 287 294 288 287 289 284 286 282 286 289 286 284 293 302 300 302 303 304 305 303 303 303 302 303 303 304 305 306 306
306 307 308 308 307 306 305 304 304 300 297 299 299 300 299 295 293 288 285 286 286 284 287 285 286 289 290 294 289 290 286 286 282 289 286 284 292 297 301 302 303 303 304 304 304 303 304 304 304 304 304 304 304 305
307 307 307 306 306 305 304 303 303 303 303 300 296 293 290 289 281 283 280 282 282 286 288 287 286 288 288 290 287 288 285 282 289 284 284 289 294 297 300 302 303 303 303 303 303 304 304 305 307 306 305 306 306 306
306 306 305 304 304 304 304 303 304 303 298 292 290 284 285 283 284 285 285 285 288 289 289 289 286 286 286 285 285 284 287 287 282 281 283 289 294 297 301 303 302 302 302 303 303 304 303 306 306 306 306 307 307 306
304 304 303 303 303 303 303 303 305 301 296 290 291 282 285 289 288 288 289 289 291 293 292 290 289 289 286 287 288 286 284 282 285 287 292 294 296 298 300 301 301 302 303 303 304 305 305 305 305 304 303 303 304 306
302 302 300 303 303 303 303 303 301 299 295 292 290 287 289 287 286 288 290 291 294 293 292 291 287 284 285 287 285 285 284 283 286 290 294 296 297 298 299 301 302 304 305 304 305 305 305 304 301 300 301 301 302 303
300 297 302 303 302 302 302 299 297 294 292 291 287 290 291 290 290 290 292 292 294 292 287 287 284 285 287 284 285 287 286 287 290 292 295 296 297 298 300 302 303 303 304 305 305 305 304 304 303 300 298 300 300 303
297 300 301 301 301 300 298 297 294 292 288 288 286 287 289 291 291 292 293 294 292 290 290 287 289 284 282 284 285 288 290 292 293 294 295 297 299 300 303 301 304 305 304 304 305 305 304 302 301 299 300 300 300 300
298 300 302 302 300 297 292 292 293 287 287 288 287 289 290 292 293 295 295 295 295 294 292 289 286 280 283 288 288 289 290 291 291 294 296 299 300 302 302 302 305 305 305 303 304 303 304 303 302 302 300 300 298 299
300 301 301 302 301 296 292 290 294 290 288 290 293 292 290 291 294 294 294 294 293 290 287 284 285 287 288 291 292 292 292 293 294 294 296 299 302 302 300 303 305 306 305 305 306 300 304 303 304 303 301 299 299 298
297 297 300 298 297 295 293 291 290 290 289 289 290 290 290 292 291 290 290 292 289 287 283 288 288 289 294 294 294 293 293 294 292 294 295 298 302 302 302 304 305 307 304 305 303 302 301 304 304 303 301 300 300 300
293 299 295 298 292 293 289 292 288 290 288 288 288 288 284 283 286 288 291 288 286 284 288 288 290 291 292 292 292 293 294 295 295 296 297 301 300 299 302 304 304 305 304 304 304 303 303 304 306 304 300 299 298 298
298 297 293 292 286 283 287 292 287 288 283 285 288 286 286 285 288 292 285 287 288 291 294 293 292 293 292 293 294 294 295 295 294 297 302 302 302 303 305 305 307 305 304 304 305 304 303 296 297 301 299 299 298 296
298 291 288 284 286 286 290 284 287 289 289 286 287 286 288 289 292 289 287 290 293 291 291 294 296 294 296 296 294 293 296 300 301 303 303 300 301 302 306 307 308 307 307 305 305 304 304 303 300 303 302 301 300 298
286 286 287 283 288 286 286 287 288 288 287 288 289 289 290 291 287 288 288 290 290 293 294 294 295 295 293 295 297 299 301 302 300 300 302 303 302 303 304 308 307 308 310 306 304 303 302 302 300 300 301 301 300 299
286 288 287 288 288 288 288 286 287 287 288 288 288 288 292 288 287 286 288 290 292 292 292 291 291 293 295 297 296 297 298 300 302 298 301 302 302 301 303 304 304 305 310 309 306 303 302 302 301 301 300 298 291 298
285 286 289 295 292 290 288 290 289 284 286 284 286 285 286 284 285 286 291 291 290 292 293 293 292 293 293 294 296 299 299 299 299 299 300 302 304 305 304 303 302 305 310 309 307 305 303 302 301 300 299 299 299 298
289 291 286 291 288 290 287 287 286 284 286 287 288 286 284 282 283 287 288 292 292 293 293 294 296 294 295 293 294 295 296 297 300 300 301 302 305 306 305 303 299 289 302 306 306 305 304 303 301 300 300 299 298 299
290 292 293 288 289 288 288 286 287 289 290 289 286 284 285 287 288 287 290 292 293 293 292 294 295 296 294 295 295 295 295 295 296 295 297 297 298 302 307 305 303 303 301 298 289 296 302 302 301 301 301 300 299 300
291 294 289 290 288 283 288 291 290 292 293 292 292 290 288 289 291 294 293 292 291 291 293 295 296 297 295 293 295 293 295 296 297 296 296 297 299 303 306 303 302 301 301 300 298 296 290 298 296 301 300 299 299 299
297 294 291 291 288 289 291 293 293 293 294 293 293 290 289 290 292 294 293 293 292 293 293 293 295 296 297 294 292 292 292 296 297 299 300 300 300 301 307 305 303 302 301 300 299 298 298 298 299 299 298 298 298 298
295 293 292 291 291 293 296 293 293 292 292 289 290 293 291 290 287 290 294 293 292 290 289 291 293 294 296 296 297 297 292 298 299 300 302 301 299 302 302 308 307 303 300 298 298 299 299 299 298 298 298 298 299 299
296 296 295 294 291 290 293 292 291 291 290 289 290 290 289 288 285 290 295 295 293 291 291 293 295 296 297 298 297 298 294 299 293 287 288 288 286 290 297 306 306 302 300 298 298 299 300 299 298 298 298 298 298 298
Wind_Speed
13 14 24 29 30 29 29 28 28 26 25 24 23 21 19 16 13 5 4 2 4 3 4 5 5 4 4 4 3 3 4 5 4 3 4 4 3 4 2 4 4 4 3 4 2 2 9 7 5 4 7 4 3 5
21 13 11 27 29 30 29 29 28 27 26 25 24 21 20 17 13 6 0 2 3 4 4 2 3 2 3 5 5 3 5 1 2 2 2 1 3 3 1 3 5 1 3 3 5 6 2 4 5 5 1 3 2 3
26 22 15 25 30 30 30 29 28 28 27 26 24 22 20 17 14 7 1 2 4 3 4 3 4 5 3 4 4 5 2 2 2 3 3 2 3 2 2 4 3 6 2 3 3 3 5 5 4 1 1 4 3 3
24 23 18 20 29 30 30 30 30 29 28 27 25 23 21 18 13 7 1 2 4 3 3 6 1 4 6 5 4 5 5 3 3 3 2 2 3 3 3 3 3 5 6 4 8 8 7 1 5 6 8 7 7 6
23 22 22 16 26 30 30 31 30 30 29 27 26 23 21 17 12 4 0 2 2 5 4 4 6 1 4 6 5 3 4 3 2 2 1 3 2 2 2 1 7 5 7 7 12 7 6 6 7 9 6 7 7 7
23 20 21 17 24 29 31 31 31 31 30 29 27 24 20 15 12 3 3 3 1 4 4 1 4 3 3 5 4 3 3 3 3 3 3 3 3 3 3 5 7 7 4 6 8 5 7 14 9 8 16 14 10 11
23 20 20 18 25 30 31 32 32 31 31 30 28 25 19 14 3 3 4 3 2 4 3 2 3 3 5 4 1 1 2 2 4 2 2 3 3 3 3 10 4 10 15 13 14 10 14 16 12 11 9 12 12 10
24 22 17 15 27 31 31 32 32 32 33 32 29 24 18 11 4 1 1 2 3 4 3 2 4 2 4 2 1 2 1 2 2 3 2 1 4 1 5 9 8 9 10 10 12 12 14 14 13 14 13 11 10 8
24 21 12 20 27 31 33 32 34 36 37 34 30 24 7 3 2 2 2 6 3 4 4 2 5 5 1 1 2 2 3 1 1 3 4 4 2 5 11 9 9 9 7 8 12 17 16 15 16 14 13 12 8 8
23 25 12 28 30 34 33 38 40 39 38 36 18 4 3 4 13 8 6 3 4 2 1 3 2 3 5 2 1 2 2 2 1 5 3 3 5 12 11 13 10 10 14 8 12 13 13 11 9 8 9 9 8 9
22 19 24 32 34 35 41 43 42 39 32 5 5 3 3 14 3 2 3 3 2 2 4 5 5 3 2 5 3 2 3 1 1 6 4 2 4 4 7 3 5 8 9 10 8 8 7 8 10 11 13 11 8 8
23 23 35 35 40 42 44 44 40 12 4 6 10 9 4 3 2 4 4 2 5 6 4 6 5 5 3 4 4 2 3 2 5 2 2 3 2 7 8 9 8 8 8 10 9 11 13 14 13 13 14 15 13 13
31 38 39 42 43 44 43 37 27 9 20 9 6 5 4 2 2 8 8 5 4 4 5 4 4 5 3 4 2 3 3 5 0 0 4 3 5 8 10 10 10 9 10 10 12 9 14 15 14 14 16 18 18 14
41 43 42 44 43 42 34 25 17 22 4 4 4 7 5 5 6 6 6 6 6 5 6 5 3 4 1 4 2 1 5 3 1 2 2 4 7 11 11 10 11 14 14 15 12 15 16 15 15 16 15 14 13 13
45 44 44 42 41 33 24 17 15 1 1 5 5 6 7 4 4 4 3 2 0 5 5 4 5 4 3 3 1 1 2 4 2 1 3 4 8 10 10 11 13 13 13 11 13 14 15 14 13 12 11 11 11 13
46 42 31 35 26 20 15 9 2 1 2 2 2 3 2 4 1 2 4 5 2 5 4 5 4 4 2 3 2 5 3 2 3 2 4 5 7 8 8 9 11 11 12 11 11 10 10 11 10 11 11 13 13 12
27 12 26 17 14 11 11 3 1 1 2 2 1 1 3 4 4 3 5 3 2 5 3 4 4 5 1 2 3 2 3 4 4 5 4 5 7 8 8 9 10 10 13 11 10 7 9 9 8 11 14 15 17 19
19 14 15 11 7 5 2 1 1 2 4 2 3 1 3 3 4 4 3 3 6 3 3 3 4 2 3 1 2 2 3 2 2 3 4 7 7 7 7 8 10 10 9 9 10 5 6 10 9 8 11 12 14 15
12 8 11 10 5 3 3 3 3 3 1 1 2 3 4 3 3 5 4 4 4 3 5 3 3 2 3 2 3 2 1 1 3 4 5 7 7 7 9 9 9 8 7 8 7 3 4 6 6 7 7 9 10 10
15 17 14 12 7 4 4 3 3 4 4 2 3 5 3 3 3 4 5 4 4 3 3 2 3 3 4 3 3 3 2 1 2 4 7 7 6 6 7 8 6 8 6 8 2 2 3 4 6 7 8 8 10 12
10 8 10 7 5 5 4 3 5 2 2 4 3 4 3 4 4 4 3 2 4 2 1 2 1 1 1 3 3 2 3 3 2 3 5 9 7 5 7 7 6 5 7 2 5 3 3 4 3 6 8 7 7 8
2 5 3 5 5 5 5 4 4 1 3 1 4 3 3 3 2 2 1 3 1 3 2 1 1 1 3 3 3 1 3 5 6 5 8 9 4 5 6 7 6 4 6 3 3 4 0 2 3 4 6 4 3 4
4 5 5 5 5 5 2 4 4 3 3 2 2 3 2 2 2 2 1 2 3 3 3 3 1 1 1 3 4 5 4 5 5 6 7 4 4 4 6 6 4 3 5 5 4 4 4 4 5 5 3 3 5 6
6 5 4 4 4 4 2 3 2 2 3 2 3 3 4 3 1 1 2 3 1 1 2 2 1 2 2 3 3 3 4 3 4 5 4 4 4 4 8 5 3 3 4 3 4 6 6 6 6 4 4 3 4 4
6 5 3 5 3 3 1 2 2 1 2 4 4 3 4 3 3 4 3 2 2 2 2 1 1 0 1 3 4 4 5 2 4 3 3 4 3 2 4 3 3 2 2 5 5 6 6 5 5 5 5 6 8 8
4 2 2 2 2 1 3 2 3 1 2 2 3 1 3 4 3 3 1 2 2 2 3 3 3 4 2 2 3 3 4 4 4 3 3 5 5 3 1 2 2 3 2 5 5 7 7 6 6 12 10 9 8 11
4 4 2 1 1 1 2 2 3 4 3 2 2 4 3 1 2 2 1 2 2 2 2 3 2 2 3 5 5 4 5 4 3 4 6 6 4 3 2 3 2 2 4 5 5 7 8 8 9 11 7 6 6 7
3 3 3 2 4 3 2 3 2 2 1 1 1 1 2 1 1 1 1 1 2 3 4 5 5 4 5 5 4 4 5 5 6 6 5 3 4 4 3 4 4 6 5 5 6 6 7 7 8 9 9 7 6 6
2 3 3 7 4 3 3 2 1 1 1 1 2 2 2 1 1 0 2 3 4 4 4 4 3 4 4 4 4 4 4 2 5 6 8 5 5 4 4 4 5 5 5 7 8 7 10 8 8 8 7 6 5 6
2 4 3 3 3 1 1 1 2 2 0 1 2 2 1 1 2 2 2 3 3 3 4 5 5 3 4 4 3 4 3 2 1 2 2 4 4 5 2 4 6 5 5 7 8 8 9 10 9 8 6 4 4 4
3 2 4 4 3 2 2 3 1 0 2 3 3 2 2 2 1 0 2 3 4 4 3 3 4 3 3 3 3 2 3 3 4 4 5 3 4 5 3 5 6 5 4 5 5 6 7 8 8 9 9 7 3 3
2 3 4 3 3 3 2 1 0 1 1 3 4 2 2 1 1 1 2 2 4 4 3 4 4 3 3 3 3 3 3 3 3 4 5 2 3 4 4 3 7 6 6 6 6 7 9 9 8 10 10 7 3 2
4 4 4 4 5 6 4 2 3 1 2 2 1 1 2 1 2 2 3 3 3 6 6 6 6 5 6 5 5 4 4 1 4 4 3 2 4 3 4 2 8 8 8 6 5 8 10 11 9 8 7 6 4 2
Wind_Direction
205 221 193 185 180 181 180 180 179 179 173 170 168 167 165 166 173 150 258 223 120 110 299 16 17 42 2 54 118 287 46 356 37 104 148 236 204 247 264 263 264 207 207 210 162 229 283 339 344 125 202 200 126 35
216 228 226 187 181 178 178 176 176 176 171 168 165 163 161 164 167 160 319 315 102 101 223 275 273 251 132 165 133 10 157 88 213 109 48 52 335 348 94 287 343 62 122 240 189 224 139 346 66 46 77 353 62 60
201 214 238 191 179 176 174 172 174 172 167 164 162 158 158 158 163 155 202 294 58 71 319 37 247 241 119 128 146 109 337 190 37 184 171 215 235 145 225 248 351 318 40 253 4 263 316 326 52 54 307 190 190 173
194 199 217 204 179 173 170 169 168 166 163 160 158 154 153 156 161 153 86 301 96 118 116 284 5 130 153 117 102 132 141 36 109 73 99 181 195 141 210 213 180 221 346 326 287 275 311 245 16 354 327 301 266 260
191 192 197 209 178 171 169 166 163 162 159 156 153 149 147 147 144 138 267 295 141 128 172 276 325 183 118 122 141 122 97 94 69 28 64 242 251 53 298 219 239 179 231 235 265 270 241 242 290 297 295 283 270 266
186 181 190 210 184 172 167 164 162 159 156 153 146 139 136 142 131 113 48 328 10 108 84 34 281 128 117 112 110 115 130 114 107 140 223 269 265 109 252 247 249 214 211 208 263 245 270 282 259 243 268 266 250 263
177 176 184 207 187 169 163 161 158 156 153 146 139 136 139 130 93 92 180 223 359 81 78 349 312 256 146 108 45 70 48 157 132 210 226 207 273 89 224 251 256 275 277 268 268 276 285 277 270 267 259 264 267 262
173 174 174 205 166 161 158 155 151 149 139 132 127 125 122 91 54 38 307 285 109 90 85 141 264 52 137 144 250 163 123 44 306 204 353 222 319 177 262 251 258 260 270 275 262 255 249 263 278 273 273 273 266 264
171 172 177 192 164 156 150 148 144 132 125 121 120 113 86 65 115 211 165 66 65 122 159 140 161 212 103 161 174 31 124 145 265 193 223 106 266 238 238 255 273 275 252 264 285 281 281 269 266 271 276 278 249 262
167 169 194 150 149 145 140 134 126 125 122 122 110 101 127 208 130 122 20 44 16 323 89 200 223 199 114 113 347 83 19 214 235 242 109 166 252 255 266 255 257 271 278 294 298 294 303 294 289 287 272 255 246 254
164 163 168 145 144 140 132 126 125 125 123 112 135 121 141 127 82 106 132 143 196 227 204 218 177 155 281 123 178 171 195 237 301 267 169 215 273 288 325 338 274 277 298 310 270 264 265 266 287 288 285 262 253 253
162 173 141 142 134 131 128 128 131 111 155 160 114 101 86 95 155 148 178 208 180 214 194 155 197 178 228 128 110 217 173 65 247 277 28 267 275 310 327 323 320 318 301 294 292 289 291 286 283 285 283 273 262 254
150 134 133 130 128 127 128 126 136 138 126 111 73 123 123 180 155 178 181 207 194 192 173 147 131 152 18 62 98 130 166 230 74 196 226 182 265 320 321 320 316 307 293 282 279 277 287 290 289 284 283 279 266 258
125 124 122 122 123 125 130 143 153 146 71 91 117 134 173 192 216 198 179 171 217 144 131 128 123 127 131 70 148 167 230 105 239 241 309 266 316 319 317 312 317 310 309 302 294 301 298 291 295 292 291 289 272 261
114 115 118 118 125 137 140 155 171 314 117 123 140 168 200 208 201 182 198 112 312 114 103 71 42 85 46 105 213 340 264 231 198 167 234 293 287 294 300 319 311 317 319 322 322 316 311 315 318 328 337 325 301 266
107 108 123 130 129 136 149 156 244 312 338 106 142 127 223 120 204 144 121 121 81 95 74 60 95 78 166 171 179 219 217 66 267 266 262 274 297 303 304 309 315 323 323 312 314 318 334 349 4 347 342 338 324 289
111 115 133 125 121 139 179 145 159 259 54 74 356 16 117 108 123 126 105 110 96 73 97 95 106 189 163 167 222 47 133 214 235 269 278 286 286 293 307 309 317 325 323 336 320 339 343 350 15 7 1 2 14 42
104 119 121 142 165 160 172 168 119 118 75 18 92 342 79 85 96 57 62 53 74 89 81 162 137 106 191 225 56 247 246 274 293 286 290 290 298 305 296 295 321 312 319 328 331 338 342 25 28 19 15 22 38 46
118 125 100 72 126 104 100 34 49 75 59 41 4 5 86 90 47 94 81 63 83 106 92 56 108 170 227 176 177 237 274 346 284 291 281 291 300 297 308 313 309 311 303 327 333 344 24 36 36 35 37 41 50 52
62 45 43 41 47 47 70 17 56 51 50 324 24 4 69 87 105 74 72 52 65 69 58 120 188 219 172 209 191 170 192 298 347 328 310 316 306 296 305 301 312 308 313 321 240 51 51 41 40 48 44 53 68 66
40 0 20 35 37 43 74 38 40 57 30 59 326 49 20 24 60 55 54 16 60 105 240 236 206 325 11 82 71 81 51 25 283 237 287 301 303 308 298 298 341 332 336 3 127 106 37 61 76 66 77 79 73 69
20 22 40 24 63 31 55 4 126 203 65 65 36 25 48 39 60 26 37 59 159 239 188 242 304 23 12 19 339 7 280 298 290 286 282 270 297 303 317 330 343 342 345 42 115 118 103 86 136 114 118 127 73 59
6 34 41 37 71 51 32 18 53 31 77 68 65 78 60 33 83 32 51 220 247 206 195 199 165 133 259 284 320 313 291 290 296 291 287 260 277 303 334 329 337 347 1 54 54 88 79 79 104 111 115 105 93 97
15 50 37 53 52 76 64 35 22 102 119 149 158 141 147 136 91 178 230 202 221 60 37 24 29 330 333 318 296 272 275 244 270 277 273 299 329 356 339 332 4 14 47 76 58 68 62 61 62 97 128 117 109 114
63 17 64 50 75 94 82 142 129 158 227 158 180 133 141 138 188 204 193 144 121 150 179 207 341 318 274 297 309 335 324 281 291 294 334 335 347 2 1 347 15 59 61 88 69 75 66 65 60 75 77 108 111 102
75 152 81 117 117 208 179 188 183 164 356 81 49 345 155 175 165 115 55 19 63 52 29 32 2 329 306 300 316 332 324 323 340 355 325 1 332 327 298 44 43 41 59 105 108 99 88 73 87 82 60 55 76 99
77 65 307 277 126 120 80 77 75 69 78 48 10 344 13 78 87 53 73 51 14 341 297 295 308 295 285 306 322 321 324 343 339 273 277 284 292 318 100 102 82 33 94 95 102 113 107 98 91 97 80 49 41 95
125 160 139 67 64 18 89 76 52 73 75 354 266 28 81 74 148 289 249 15 281 276 277 272 251 242 255 260 266 296 309 324 315 318 311 355 54 18 39 77 55 57 69 89 106 112 110 107 106 110 105 82 54 42
155 172 154 120 109 76 62 93 133 112 159 291 11 100 130 149 154 136 291 291 297 283 281 287 268 229 248 270 269 268 265 334 22 15 16 7 0 359 346 56 56 60 76 78 58 89 114 113 108 104 94 88 78 62
217 164 112 82 75 104 161 176 117 162 161 135 122 109 109 144 198 192 274 321 322 309 288 281 278 238 223 215 250 264 262 230 163 143 327 338 316 309 306 95 87 73 78 92 99 100 92 103 103 97 89 57 52 64
352 72 78 62 80 59 104 133 95 43 183 188 183 117 99 108 69 332 275 299 309 307 308 320 321 324 260 228 227 265 292 275 209 244 269 279 335 340 61 125 121 120 109 100 99 106 109 110 113 114 113 107 63 6
133 132 134 129 118 129 143 241 144 213 81 49 27 69 147 168 333 298 261 290 320 323 302 296 299 291 332 313 297 249 212 280 269 230 251 81 25 359 4 107 122 115 101 107 112 110 108 113 121 125 122 127 189 269
146 169 152 125 136 166 159 150 193 220 92 97 78 66 54 46 349 298 291 240 275 293 289 278 268 263 260 260 260 282 273 197 134 118 111 32 67 9 357 82 122 122 117 108 100 107 105 113 118 128 137 157 188 293